Location: Archemont
(49.1579°N, 1.7598°E)
Time: 13:01:40
(UTC+00:00)

Daily predictions for brighter satellites

Satellite Brightness Start Highest point End
(mag) Time Altitude Azimuth Time Altitude Azimuth Time Altitude Azimuth
Cosmos 1544 Rocket 3.9 17:22:12 10° NNW 17:26:31 71° W 17:30:49 10° S
Cosmos 1140 Rocket 3.5 17:24:09 10° SSW 17:29:19 80° ESE 17:34:30 10° NNE
ISS -2.4 17:29:05 10° WNW 17:32:17 41° SSW 17:35:29 10° SE
Cosmos 1655 Rocket 4.0 17:27:07 10° N 17:33:26 81° E 17:39:39 10° SSE
DMSP B5D2-2 4.2 17:29:12 10° NNE 17:34:25 56° E 17:39:35 10° S
SL-08 ROCKET BODY 4.4 17:32:22 10° N 17:38:11 57° ENE 17:43:54 10° SSE
Cosmos 1190 Rocket 4.2 17:35:25 10° S 17:40:35 55° ESE 17:45:45 10° NNE
Meteor PRIRODA 3.8 17:37:24 10° S 17:40:56 74° WSW 17:44:30 10° NNW
USA 290 3.2 17:39:00 10° SW 17:42:07 47° WNW 17:45:16 10° NNE
Cosmos 1633 3.9 17:41:05 10° SE 17:43:22 17° E 17:45:39 10° NE
Cosmos 1461 4.1 17:40:08 10° S 17:43:39 25° ESE 17:47:01 11° ENE
Cosmos 2266 Rocket 4.3 17:38:10 10° NNW 17:44:28 76° W 17:50:37 10° S
Cosmos 1408 2.3 17:41:38 10° S 17:45:00 64° E 17:48:25 10° NNE
Okean O Rocket 3.0 17:42:19 10° ESE 17:45:25 19° ENE 17:48:33 10° NNE
Cosmos 1844 Rocket 2.8 17:41:57 10° NNW 17:47:26 53° NE 17:52:52 10° SE
Cosmos 1328 3.7 17:45:16 10° S 17:49:14 78° E 17:53:12 10° NNE
Lacrosse 5 rocket 1.5 17:49:38 10° NW 17:53:04 43° NNE 17:55:52 15° E
NOAA 6 4.3 17:48:06 10° S 17:53:15 73° WSW 17:58:27 10° NNW
DELTA 2 DEB (DPAF) 4.2 17:49:42 10° NNE 17:54:07 84° WNW 17:58:30 10° SSW
Meteor 1-11 4.5 17:48:37 10° SSE 17:54:11 50° E 17:59:46 10° NNE
CZ-4B DEB 4.2 17:49:07 10° SSE 17:54:29 64° ENE 17:59:55 10° N
CZ-4B R/B 3.6 17:52:06 10° SE 17:57:00 38° ENE 18:02:01 10° N
SKYMED 2 3.5 17:57:38 10° NNE 18:01:59 67° ESE 18:06:18 10° S
Cosmos 1553 Rocket 4.4 17:56:36 10° SSE 18:02:06 37° E 18:07:42 10° NNE
Cosmos 1844 3.8 17:57:42 10° NNW 18:03:29 60° ENE 18:09:10 10° SE
CZ-4 R/B 2.3 18:02:22 10° SE 18:05:52 28° ENE 18:09:20 10° N
Cosmos 468 Rocket 3.9 18:01:08 10° NNW 18:06:20 73° ENE 18:11:27 10° SSE
Cosmos 2058 Rocket 3.7 18:02:25 10° N 18:06:27 34° ENE 18:10:28 10° SE
Cosmos 1892 2.5 18:03:08 10° S 18:06:50 75° E 18:10:36 10° NNE
Cosmos 2278 4.2 18:03:09 10° SW 18:08:46 63° WNW 18:14:28 10° NNE
CZ-4C R/B 3.1 18:05:41 10° NNE 18:09:31 64° E 18:13:09 10° S
Cosmos 2360 Rocket 2.6 18:05:41 10° S 18:10:53 41° ESE 18:15:52 11° NE
Cosmos 2219 Rocket 3.4 18:07:24 10° SE 18:11:17 20° E 18:12:21 19° E
YAOGAN 1 2.7 18:08:26 10° SE 18:12:36 50° ENE 18:16:48 10° N
RESURS DK-1 2.3 18:11:59 10° NNW 18:16:05 59° ENE 18:20:08 10° SE
Cosmos 1825 2.1 18:13:11 10° S 18:16:49 59° E 18:20:28 10° NNE
Cosmos 1954 Rocket 3.9 18:12:52 10° SSW 18:18:06 77° ESE 18:23:20 10° NNE
Cosmos 2278 Rocket 3.6 18:14:23 10° N 18:18:21 19° NE 18:19:41 18° NE
Cosmos 2333 Rocket 2.9 18:14:17 10° SSE 18:19:13 32° ESE 18:22:21 19° ENE
IGS 5A 4.3 18:20:49 25° E 18:21:36 27° ENE 18:25:05 10° N
APEX 4.5 18:16:23 10° SW 18:22:25 71° WNW 18:27:57 10° NNE
MOS 1-B 4.3 18:17:07 10° SSE 18:22:50 65° ENE 18:28:35 10° N
Cosmos 2322 Rocket 2.1 18:17:26 10° SSW 18:22:59 71° ESE 18:28:36 10° NNE
Cosmos 1763 Rocket 3.8 18:18:25 10° NNW 18:23:35 68° WSW 18:28:39 10° S
USA 215 4.4 18:18:03 10° SSE 18:24:14 44° SW 18:30:29 10° WNW
Meteor 2-12 Rocket 4.3 18:19:10 10° N 18:25:17 78° E 18:31:20 10° SSE
ATLAS 2AS CENTAUR R/B 3.2 18:24:40 10° NW 18:31:33 60° WSW 18:38:02 10° SSE
BlueWalker 3 2.6 18:27:56 10° WNW 18:31:42 44° N 18:33:03 31° NE
SL-4 R/B 1.9 18:28:27 10° WNW 18:31:56 58° N 18:33:04 38° ENE
Lacrosse 5 1.8 18:27:56 10° SW 18:33:02 77° SE 18:35:50 27° ENE
COSMOS 2428 4.4 18:30:49 10° SE 18:32:20 15° SE 18:32:20 15° SE
Cosmos 1606 Rocket 4.1 18:30:26 10° NNW 18:34:42 59° W 18:38:56 10° S
IRIDIUM 104 4.2 18:29:30 10° N 18:34:44 68° E 18:39:55 10° SSE
ATLAS 5 CENTAUR R/B 3.8 18:33:32 10° NNW 18:35:52 14° N 18:37:52 11° NNE
Nadezhda 2 Rocket 4.5 18:29:55 10° N 18:36:09 85° W 18:42:16 10° S
Cosmos 841 Rocket 3.4 18:31:00 10° NNW 18:36:16 65° ENE 18:41:29 10° SE
S3M 4.3 18:31:21 10° SSE 18:37:17 42° E 18:43:14 10° NNE
Feng Yun 1-1 Rocket 4.3 18:32:12 10° SE 18:37:35 53° ENE 18:42:53 10° N
SL-16 R/B 2.5 18:31:59 10° SW 18:37:39 69° WNW 18:43:20 10° NNE
Cosmos 540 Rocket 3.5 18:32:32 10° NNW 18:37:43 79° WSW 18:42:49 10° SSE
Cosmos 1741 Rocket 4.4 18:32:54 10° S 18:37:50 40° ESE 18:40:08 26° NE
Cosmos 1340 2.5 18:34:31 10° N 18:38:10 62° ENE 18:41:48 10° SSE
In-Cosmos 22 Rocket 4.2 18:32:23 10° S 18:38:12 87° E 18:44:04 10° NNE
Cosmos 1606 4.2 18:36:46 10° N 18:38:34 22° NNE 18:38:34 22° NNE
Cosmos 2333 4.5 18:35:03 10° S 18:40:19 43° ESE 18:42:55 27° NE
IRIDIUM 114 4.2 18:38:37 10° N 18:43:52 81° E 18:49:05 10° S
Gblst 52 Del rocket 4.1 18:38:38 10° WSW 18:44:16 88° NNW 18:46:47 33° ENE
MINOTAUR 4 R/B 3.8 18:46:22 50° NE 18:47:05 70° ESE 18:50:29 10° S
Cosmos 1892 Rocket 3.5 18:43:36 10° S 18:48:02 88° WNW 18:52:27 10° N
CSL-04 Rocket 4.1 18:47:08 34° E 18:48:19 39° ENE 18:53:18 10° N
COSMO-SKYMED 1 3.8 18:45:48 10° N 18:49:55 42° WNW 18:54:00 10° SW
Cosmos 1980 Rocket 4.3 18:45:58 10° W 18:50:21 22° NW 18:54:45 10° N
Spot 1 4.1 18:51:48 48° ESE 18:51:48 48° ESE 18:55:30 10° S
IRIDIUM 103 4.3 18:47:47 10° N 18:53:02 86° W 18:58:15 10° S
Cosmos 2315 Rocket 4.4 18:51:01 10° SSE 18:56:43 37° E 19:02:28 10° NNE
Resurs 01 Rocket 4.1 19:00:01 10° NNE 19:00:01 10° NNE 19:00:02 10° NNE
Cosmos 1943 Rocket 3.9 18:54:52 10° N 18:57:55 16° NNE 18:57:55 16° NNE
Genesis I 3.1 18:55:50 10° SSW 18:59:46 71° SE 18:59:51 71° ESE
Cosmos 2322 4.2 18:55:42 10° S 19:00:25 37° ESE 19:00:25 37° ESE
ATLAS CENTAUR R/B 3.7 18:57:29 10° WNW 19:00:58 21° NNW 19:03:35 13° NNE
Cosmos 1869 4.0 19:00:47 10° NNW 19:04:35 54° W 19:08:25 10° S
Cosmos 1633 4.2 19:14:15 10° SW 19:17:16 31° WNW 19:19:32 15° NNW
Okean O Rocket 2.1 19:17:02 10° S 19:21:22 58° W 19:25:45 10° NNW
Cosmos 1745 Rocket 4.1 19:15:36 10° NNW 19:21:52 78° W 19:28:02 10° S
Cosmos 1461 3.7 19:18:01 10° WSW 19:22:14 51° NW 19:23:11 42° N
Okean-O 4.2 19:25:58 24° N 19:25:58 24° N 19:27:49 10° N
SJ-6B 4.2 19:26:54 30° NNW 19:26:54 30° NNW 19:29:01 10° NNW
Lacrosse 5 rocket 2.5 19:28:32 10° WNW 19:31:18 35° WSW 19:31:18 35° WSW
Cosmos 1709 Rocket 3.9 19:34:12 10° N 19:40:24 86° W 19:43:12 35° S
CZ-4 R/B 3.1 19:36:58 10° SSW 19:40:40 32° W 19:44:21 10° NNW
Cosmos 44 Rocket 4.3 19:46:13 10° SW 19:49:10 39° SW 19:49:10 39° SW
Cosmos 2219 Rocket 2.3 19:49:00 10° SSW 19:54:09 71° WSW 19:54:09 71° WSW
Cosmos 2360 Rocket 3.3 19:49:37 10° WSW 19:54:55 40° NW 19:57:41 25° N
Cosmos 2333 Rocket 2.9 19:57:47 10° SW 20:03:17 50° NW 20:04:26 43° NNW
Cosmos 2278 Rocket 3.0 19:57:45 10° NNW 20:01:33 43° NNW 20:01:33 43° NNW
Cosmos 2322 Rocket 4.0 20:02:55 10° W 20:07:35 26° NW 20:10:38 17° N
Lacrosse 5 3.3 20:11:31 10° W 20:15:03 35° NW 20:15:03 35° NW
COSMOS 2428 4.4 20:12:28 10° SSW 20:14:26 23° SSW 20:14:26 23° SSW
ATLAS 5 CENTAUR R/B 4.3 20:18:22 10° NNW 20:19:14 14° NNW 20:19:14 14° NNW
Cosmos 1943 Rocket 4.2 20:37:44 10° NNW 20:39:27 20° NNW 20:39:27 20° NNW
